Location: Davayat
(45.9471°N, 3.1105°E)
Time: 14:40:51
(UTC+00:00)

Cosmos 2297 - Pass Details

Date: 01 December 2020
Orbit: 834 x 860 km, 71.0° (Epoch: 27 January)

Event Time Altitude Azimuth Distance (km) Brightness Sun altitude
Rises 16:46:40 0° 333° (NNW) 3,413 6.9 -7.4°
Reaches altitude 10° 16:49:07 10° 333° (NNW) 2,478 6.2 -7.8°
Maximum altitude 16:54:49 87° 246° (WSW) 858 3.8 -8.7°
Drops below altitude 10° 17:00:32 10° 157° (SSE) 2,479 6.1 -9.6°
Sets 17:02:58 0° 157° (SSE) 3,414 6.8 -10.0°
